{"data":{"norad_id":59525,"intl_designator":"2024-073Q","name":"STARLINK-31538","alt_names":[],"object_type":"PAYLOAD","status":"ACTIVE","operator":null,"country":"US","launch_date":"2024-04-17","launch_site_code":"AFETR","launch_vehicle":null,"mission":null,"orbit_class":"UNKNOWN","rcs_meters":null,"size_class":null,"mass_kg":null,"dimensions":null,"purposes":["comms"],"wikipedia_slug":null,"has_3d_model":false,"image_url":null,"decayed_at":null,"tle_current":{"epoch":"2026-05-24T23:14:13.305120Z","epoch_age_seconds":71666,"freshness":"FRESH","line1":"1 59525U 24073Q   26144.96820955  .00000330  00000+0  21508-4 0  9998","line2":"2 59525  42.9999 247.0482 0001267 276.8018  83.2690 15.27592558117843","mean_motion":15.27592558,"eccentricity":0.0001267,"inclination_deg":42.9999,"raan_deg":247.0482,"arg_perigee_deg":276.8018,"mean_anomaly_deg":83.269,"bstar":2.1508e-5,"rev_number":11784,"period_min":94.265973767594,"perigee_km":482.14218561346,"apogee_km":483.88080064162,"semimajor_km":6861.1484931275,"source":"CELESTRAK","updated_at":"2026-05-25T13:38:18.976267Z"}}}